{"data":{"norad_id":65526,"intl_designator":"2025-200G","name":"STARLINK-34674","alt_names":[],"object_type":"PAYLOAD","status":"ACTIVE","operator":null,"country":"US","launch_date":"2025-09-06","launch_site_code":"AFWTR","launch_vehicle":null,"mission":null,"orbit_class":"UNKNOWN","rcs_meters":null,"size_class":null,"mass_kg":null,"dimensions":null,"purposes":["comms"],"wikipedia_slug":null,"has_3d_model":false,"image_url":null,"decayed_at":null,"tle_current":{"epoch":"2026-09-20T22:02:45.778560Z","epoch_age_seconds":75844,"freshness":"FRESH","line1":"1 65526U 25200G   26263.91858540  .00013563  00000+0  42160-3 0  9995","line2":"2 65526  97.2859 330.2755 0000812  87.2427 272.8908 15.33450972 58718","mean_motion":15.33450972,"eccentricity":8.12e-5,"inclination_deg":97.2859,"raan_deg":330.2755,"arg_perigee_deg":87.2427,"mean_anomaly_deg":272.8908,"bstar":0.0004216,"rev_number":5871,"period_min":93.90583894064,"perigee_km":464.96970067808,"apogee_km":466.08111145283,"semimajor_km":6843.6624060655,"source":"CELESTRAK","updated_at":"2026-09-21T09:00:35.648702Z"}}}